This is the latest recevied weather packets stored in our database for station/object DK6GC-10. If no packets are shown the sender has not sent any weather packets the latest 10 day(s).
| Time | Temp. | Humidity | Pressure | Rain* | Wind** | Luminosity | Snow |
|---|---|---|---|---|---|---|---|
| 1788355816 | 25° C | 48% | 1022 hPa | - | - | - | - |
| 1788354916 | 26.11° C | 45% | 1022.2 hPa | - | - | - | - |
| 1788354016 | 26.67° C | 44% | 1022.1 hPa | - | - | - | - |
| 1788353116 | 26.67° C | 47% | 1022.4 hPa | - | - | - | - |
| 1788352215 | 27.22° C | 46% | 1022.4 hPa | - | - | - | - |
| 1788351315 | 26.11° C | 46% | 1022.4 hPa | - | - | - | - |
| 1788350476 | 26.11° C | 49% | 1022.5 hPa | - | - | - | - |
| 1788349557 | 25.56° C | 48% | 1022.5 hPa | - | - | - | - |
| 1788348656 | 25.56° C | 49% | 1022.6 hPa | - | - | - | - |
| 1788347756 | 25° C | 50% | 1022.8 hPa | - | - | - | - |
| 1788346856 | 25° C | 52% | 1022.9 hPa | - | - | - | - |
| 1788345956 | 23.33° C | 54% | 1022.9 hPa | - | - | - | - |
| 1788345056 | 24.44° C | 55% | 1023.1 hPa | - | - | - | - |
| 1788344156 | 23.89° C | 55% | 1023.2 hPa | - | - | - | - |
| 1788343255 | 22.78° C | 57% | 1023.3 hPa | - | - | - | - |
| 1788342355 | 22.78° C | 59% | 1023.3 hPa | - | - | - | - |
| 1788341455 | 21.67° C | 62% | 1023.4 hPa | - | - | - | - |
| 1788340555 | 21.11° C | 62% | 1023.2 hPa | - | - | - | - |
| 1788339655 | 21.11° C | 64% | 1023.3 hPa | - | - | - | - |
| 1788338754 | 21.11° C | 64% | 1023.5 hPa | - | - | - | - |
| 1788337854 | 19.44° C | 68% | 1023.4 hPa | - | - | - | - |
| 1788336954 | 19.44° C | 73% | 1023.2 hPa | - | - | - | - |
| 1788336054 | 17.78° C | 75% | 1023.2 hPa | - | - | - | - |
| 1788335154 | 17.78° C | 79% | 1023 hPa | - | - | - | - |
| 1788334254 | 16.11° C | 83% | 1023.2 hPa | - | - | - | - |
* Rain since midnight (hover to see other rain measurements)
** Current wind speed in m/s (hover to see current wind gust speed)